| time (UTC) | temp C | wind direction | speed KPH | gust KPH | rain 1hr cm | rain 24hr cm | rain mn cm | humidity % | barometer mb |
| 20260506161536 | 19 | 222 | 9.7 | 17.7 | 0.00 | 0.00 | 0.00 | 70 | 1008.2 |
| 20260506160039 | 20 | 247 | 9.7 | 38.6 | 0.00 | 0.00 | 0.00 | 64 | 1008.5 |
| 20260506154549 | 21 | 179 | 12.9 | 32.2 | 0.00 | 0.00 | 0.00 | 62 | 1008.6 |
| 20260506153033 | 21 | 245 | 12.9 | 35.4 | 0.00 | 0.00 | 0.00 | 62 | 1008.3 |
| 20260506151535 | 21 | 215 | 12.9 | 30.6 | 0.00 | 0.00 | 0.00 | 62 | 1008.4 |
| 20260506150043 | 22 | 188 | 4.8 | 20.9 | 0.00 | 0.00 | 0.00 | 61 | 1008.7 |
| 20260506144549 | 21 | 265 | 17.7 | 38.6 | 0.00 | 0.00 | 0.00 | 61 | 1008.5 |
| 20260506143046 | 21 | 260 | 11.3 | 30.6 | 0.00 | 0.00 | 0.00 | 63 | 1008.6 |
| 20260506141548 | 20 | 249 | 9.7 | 27.4 | 0.00 | 0.00 | 0.00 | 64 | 1008.8 |
| 20260506140056 | 20 | 233 | 12.9 | 33.8 | 0.00 | 0.00 | 0.00 | 64 | 1008.7 |
| 20260506134504 | 20 | 316 | 8.0 | 30.6 | 0.00 | 0.00 | 0.00 | 64 | 1008.8 |
| 20260506133007 | 20 | 179 | 11.3 | 32.2 | 0.00 | 0.00 | 0.00 | 64 | 1008.9 |
| 20260506131507 | 20 | 202 | 11.3 | 35.4 | 0.00 | 0.00 | 0.00 | 65 | 1009.1 |
| 20260506130011 | 20 | 216 | 12.9 | 25.7 | 0.00 | 0.00 | 0.00 | 66 | 1008.8 |
| 20260506124515 | 20 | 206 | 11.3 | 27.4 | 0.00 | 0.00 | 0.00 | 67 | 1008.6 |
| 20260506123017 | 19 | 209 | 9.7 | 20.9 | 0.00 | 0.00 | 0.00 | 68 | 1008.7 |
| 20260506121522 | 19 | 227 | 4.8 | 33.8 | 0.00 | 0.00 | 0.00 | 69 | 1008.9 |
| 20260506120029 | 18 | 243 | 16.1 | 30.6 | 0.00 | 0.00 | 0.00 | 69 | 1009.1 |
| 20260506114535 | 18 | 258 | 9.7 | 35.4 | 0.00 | 0.00 | 0.00 | 70 | 1009.1 |
| 20260506113046 | 18 | 286 | 9.7 | 24.1 | 0.00 | 0.00 | 0.00 | 71 | 1009.0 |
| 20260506111541 | 18 | 258 | 9.7 | 32.2 | 0.00 | 0.00 | 0.00 | 72 | 1009.3 |
| 20260506110028 | 18 | 226 | 6.4 | 30.6 | 0.00 | 0.00 | 0.00 | 73 | 1009.0 |
| 20260506104530 | 18 | 192 | 8.0 | 24.1 | 0.00 | 0.00 | 0.00 | 74 | 1008.9 |
| 20260506103041 | 18 | 234 | 8.0 | 24.1 | 0.00 | 0.00 | 0.00 | 73 | 1009.0 |
| 20260506101548 | 18 | 222 | 9.7 | 25.7 | 0.00 | 0.00 | 0.00 | 74 | 1008.8 |
| 20260506100059 | 18 | 258 | 4.8 | 22.5 | 0.00 | 0.00 | 0.00 | 74 | 1008.7 |
| 20260506094553 | 18 | 156 | 8.0 | 24.1 | 0.00 | 0.00 | 0.00 | 74 | 1008.7 |
| 20260506093003 | 18 | 349 | 9.7 | 24.1 | 0.00 | 0.00 | 0.00 | 74 | 1008.6 |
| 20260506091505 | 18 | 262 | 4.8 | 17.7 | 0.00 | 0.00 | 0.00 | 74 | 1008.8 |
| 20260506090011 | 18 | 243 | 8.0 | 19.3 | 0.00 | 0.00 | 0.00 | 74 | 1008.8 |
| 20260506084517 | 18 | 255 | 11.3 | 22.5 | 0.00 | 0.00 | 0.00 | 74 | 1008.9 |
| 20260506083022 | 18 | 235 | 6.4 | 19.3 | 0.00 | 0.00 | 0.00 | 73 | 1008.9 |
| 20260506081533 | 18 | 266 | 4.8 | 17.7 | 0.00 | 0.00 | 0.00 | 73 | 1009.0 |
| 20260506073048 | 18 | 113 | 8.0 | 19.3 | 0.00 | 0.00 | 0.00 | 71 | 1009.1 |
| 20260506071531 | 18 | 230 | 4.8 | 17.7 | 0.00 | 0.00 | 0.00 | 70 | 1009.1 |
| 20260506061548 | 19 | 230 | 8.0 | 22.5 | 0.00 | 0.00 | 0.00 | 67 | 1009.2 |
| 20260506044703 | 20 | 249 | 8.0 | 27.4 | 0.00 | 0.00 | 0.00 | 63 | 1009.7 |
| 20260506043109 | 20 | 234 | 11.3 | 24.1 | 0.00 | 0.00 | 0.00 | 62 | 1009.8 |
| 20260506041504 | 20 | 230 | 6.4 | 30.6 | 0.00 | 0.00 | 0.00 | 61 | 1009.6 |
| 20260506040011 | 20 | 143 | 9.7 | 25.7 | 0.00 | 0.00 | 0.00 | 60 | 1009.6 |
| 20260506034523 | 20 | 243 | 14.5 | 32.2 | 0.00 | 0.00 | 0.00 | 59 | 1009.7 |
| 20260506033014 | 21 | 262 | 12.9 | 30.6 | 0.00 | 0.00 | 0.00 | 58 | 1009.6 |
| 20260506031521 | 21 | 260 | 8.0 | 30.6 | 0.00 | 0.00 | 0.00 | 56 | 1009.6 |
| 20260506030024 | 21 | 228 | 9.7 | 30.6 | 0.00 | 0.00 | 0.00 | 55 | 1009.5 |
| 20260506024529 | 21 | 233 | 8.0 | 27.4 | 0.00 | 0.00 | 0.00 | 54 | 1009.5 |
| 20260506023040 | 21 | 274 | 11.3 | 27.4 | 0.00 | 0.00 | 0.00 | 54 | 1009.6 |
| 20260506021518 | 21 | 228 | 14.5 | 30.6 | 0.00 | 0.00 | 0.00 | 54 | 1009.3 |
| 20260506020022 | 22 | 247 | 11.3 | 30.6 | 0.00 | 0.00 | 0.00 | 54 | 1009.2 |
| 20260506014527 | 22 | 231 | 14.5 | 24.1 | 0.00 | 0.00 | 0.00 | 53 | 1009.1 |
| 20260506013030 | 22 | 312 | 9.7 | 27.4 | 0.00 | 0.00 | 0.00 | 51 | 1009.0 |
| 20260506011517 | 23 | 239 | 9.7 | 20.9 | 0.00 | 0.00 | 0.00 | 47 | 1008.8 |
| 20260506010020 | 24 | 240 | 12.9 | 30.6 | 0.00 | 0.00 | 0.00 | 42 | 1008.3 |
| 20260506004536 | 24 | 239 | 12.9 | 33.8 | 0.00 | 0.00 | 0.00 | 41 | 1008.1 |
| 20260506003043 | 25 | 209 | 9.7 | 35.4 | 0.00 | 0.00 | 0.00 | 39 | 1008.1 |
| 20260506001538 | 25 | 247 | 8.0 | 37.0 | 0.00 | 0.00 | 0.00 | 38 | 1007.9 |
| 20260506000046 | 25 | 268 | 9.7 | 30.6 | 0.00 | 0.00 | 0.00 | 37 | 1007.8 |
| 20260505234614 | 26 | 246 | 4.8 | 29.0 | 0.00 | 0.00 | 0.00 | 34 | 1007.7 |
| 20260505233048 | 26 | 220 | 12.9 | 45.1 | 0.00 | 0.00 | 0.00 | 32 | 1007.5 |
| 20260505231552 | 26 | 222 | 16.1 | 41.8 | 0.00 | 0.00 | 0.00 | 31 | 1007.2 |
| 20260505230059 | 26 | 227 | 11.3 | 40.2 | 0.00 | 0.00 | 0.00 | 31 | 1007.1 |
| 20260505224502 | 26 | 214 | 12.9 | 38.6 | 0.00 | 0.00 | 0.00 | 29 | 1006.9 |
| 20260505223007 | 27 | 251 | 16.1 | 43.5 | 0.00 | 0.00 | 0.00 | 28 | 1006.9 |
| 20260505221550 | 27 | 257 | 17.7 | 41.8 | 0.00 | 0.00 | 0.00 | 27 | 1007.0 |
| 20260505220051 | 27 | 254 | 19.3 | 46.7 | 0.00 | 0.00 | 0.00 | 26 | 1006.8 |
| 20260505214542 | 28 | 244 | 20.9 | 51.5 | 0.00 | 0.00 | 0.00 | 27 | 1006.5 |
| 20260505213057 | 28 | 239 | 22.5 | 48.3 | 0.00 | 0.00 | 0.00 | 29 | 1006.6 |
| 20260505211601 | 28 | 244 | 25.7 | 40.2 | 0.00 | 0.00 | 0.00 | 29 | 1006.4 |
| 20260505210058 | 28 | 225 | 24.1 | 45.1 | 0.00 | 0.00 | 0.00 | 28 | 1006.5 |
| 20260505204505 | 28 | 257 | 29.0 | 51.5 | 0.00 | 0.00 | 0.00 | 28 | 1006.4 |
| 20260505203011 | 28 | 237 | 16.1 | 41.8 | 0.00 | 0.00 | 0.00 | 29 | 1006.3 |
| 20260505201523 | 28 | 239 | 17.7 | 40.2 | 0.00 | 0.00 | 0.00 | 30 | 1006.5 |
| 20260505200018 | 28 | 237 | 17.7 | 38.6 | 0.00 | 0.00 | 0.00 | 30 | 1006.7 |
| 20260505194531 | 28 | 154 | 12.9 | 53.1 | 0.00 | 0.00 | 0.00 | 31 | 1006.8 |
| 20260505193037 | 28 | 248 | 20.9 | 43.5 | 0.00 | 0.00 | 0.00 | 31 | 1007.0 |
| 20260505191546 | 28 | 213 | 19.3 | 48.3 | 0.00 | 0.00 | 0.00 | 32 | 1007.4 |
| 20260505190035 | 27 | 245 | 27.4 | 45.1 | 0.00 | 0.00 | 0.00 | 30 | 1007.8 |
| 20260505184526 | 28 | 236 | 12.9 | 37.0 | 0.00 | 0.00 | 0.00 | 32 | 1008.1 |
| 20260505183031 | 27 | 250 | 19.3 | 49.9 | 0.00 | 0.00 | 0.00 | 32 | 1008.1 |
| 20260505181535 | 27 | 295 | 20.9 | 35.4 | 0.00 | 0.00 | 0.00 | 36 | 1008.2 |
| 20260505180048 | 27 | 228 | 16.1 | 35.4 | 0.00 | 0.00 | 0.00 | 36 | 1008.5 |
| 20260505174536 | 27 | 212 | 6.4 | 25.7 | 0.00 | 0.00 | 0.00 | 37 | 1008.6 |
| 20260505173015 | 27 | 206 | 9.7 | 33.8 | 0.00 | 0.00 | 0.00 | 39 | 1008.6 |
| 20260505171519 | 27 | 187 | 6.4 | 22.5 | 0.00 | 0.00 | 0.00 | 39 | 1008.8 |
| 20260505170027 | 27 | 237 | 8.0 | 24.1 | 0.00 | 0.00 | 0.00 | 39 | 1008.9 |
| 20260505164525 | 26 | 265 | 8.0 | 24.1 | 0.00 | 0.00 | 0.00 | 41 | 1009.0 |
| 20260505163025 | 26 | 245 | 9.7 | 27.4 | 0.00 | 0.00 | 0.00 | 41 | 1009.3 |